Skip Page Navigation
NASA JPL Caltech
NASA Logo - Jet Propulsion Laboratory + View the NASA Portal
+ Near-Earth Object (NEO) Program
Search JPL
JPL Home Earth Solar System Stars & Galaxies Technology
JPL Solar System Dynamics
BODIES ORBITS EPHEMERIDES TOOLS PHYSICAL DATA DISCOVERY FAQ SITE MAP
JPL Small-Body Database Browser
Search: [ help ]  
(2001 FB90)
Classification: Apollo [NEO, PHA]          SPK-ID: 3071769
Ephemeris | Orbit Diagram | Orbital Elements | Physical Parameters | Close-Approach Data ]

[ hide orbit diagram ]
Orbit Diagram
Note: Make sure you have Java enabled on your browser to see the applet. This applet is provided as a 3D orbit visualization tool. The applet was implemented using 2-body methods, and hence should not be used for determining accurate long-term trajectories (over several years or decades) or planetary encounter circumstances. For accurate long-term ephemerides, please instead use our Horizons system.
Orbit Viewer

Additional Notes: the orbits shown in the applet are color coded. The planets are white lines, and the asteroid/comet is a blue line. The bright white line indicates the portion of the orbit that is above the ecliptic plane, and the darker portion is below the ecliptic plane. Likewise for the asteroid/comet orbit, the light blue indicates the portion above the ecliptic plane, and the dark blue the portion below the ecliptic plane.

Orbit Viewer applet originally written and kindly provided by Osamu Ajiki (AstroArts), and further modified by Ron Baalke (JPL).


Orbital Elements at Epoch 2451994.5 (2001-Mar-26.0) TDB
Reference: JPL 22 (heliocentric ecliptic J2000)
 Element Value Uncertainty (1-sigma)   Units 
e .7834728383850812 0.010257  
a 2.465449912286741 0.079209 AU
q .5338368716111986 0.0081392 AU
i 1.922405139195728 0.028063 deg
node 266.1505071849872 0.74928 deg
peri 14.58839183049881 0.39752 deg
M 343.4103888075956 0.85189 deg
tp 2452059.659299929790
(2001-May-30.15929993)
0.20589 JED
period 1413.978163964712
3.87
68.142
0.1866
d
yr
n .2546008199946887 0.01227 deg/d
Q 4.397062952962283 0.14127 AU
  Orbit Determination Parameters
   # obs. used (total)      35  
   data-arc span      11 days  
   first obs. used      2001-03-17  
   last obs. used      2001-03-28  
   planetary ephem.      DE405  
   SB-pert. ephem.      SB405-CPV-2  
   condition code      8  
   fit RMS      .24966  
   data source      ORB  
   producer      Otto Matic  
   solution date      2011-Sep-14 19:40:34  

Additional Information
 Earth MOID = .0319131 AU 
 T_jup = 2.966 
[ show covariance matrix ]

Ephemeris | Orbit Diagram | Orbital Elements | Physical Parameters | Close-Approach Data ]

Physical Parameter Table
Parameter Symbol Value Units Sigma Reference Notes
absolute magnitude H 19.841 mag .30948 22 autocmod 2.5a

[ show close-approach data ]
Ephemeris | Orbit Diagram | Orbital Elements | Physical Parameters | Close-Approach Data ]
ABOUT SSD CREDITS/AWARDS PRIVACY/COPYRIGHT GLOSSARY LINKS
FirstGov 2013-May-21 15:19 UT
(server date/time)  
NASA Home Page
Site Manager:   Donald K. Yeomans
Webmaster  Alan B. Chamberlin